{"data":{"norad_id":43081,"intl_designator":"2017-085A","name":"YAOGAN-30 04A","alt_names":[],"object_type":"PAYLOAD","status":"ACTIVE","operator":null,"country":"PRC","launch_date":"2017-12-25","launch_site_code":"XICLF","launch_vehicle":null,"mission":null,"orbit_class":"UNKNOWN","rcs_meters":null,"size_class":null,"mass_kg":null,"dimensions":null,"purposes":[],"wikipedia_slug":null,"has_3d_model":false,"image_url":null,"decayed_at":null,"tle_current":{"epoch":"2026-05-25T02:20:17.081952Z","epoch_age_seconds":69938,"freshness":"FRESH","line1":"1 43081U 17085A   26145.09741993  .00002361  00000+0  17600-3 0  9995","line2":"2 43081  34.9962 290.7741 0005483 305.5994  54.4203 15.02569650459247","mean_motion":15.0256965,"eccentricity":0.0005483,"inclination_deg":34.9962,"raan_deg":290.7741,"arg_perigee_deg":305.5994,"mean_anomaly_deg":54.4203,"bstar":0.000176,"rev_number":45924,"period_min":95.835823650504,"perigee_km":555.17234146892,"apogee_km":562.77957954141,"semimajor_km":6937.1129605052,"source":"CELESTRAK","updated_at":"2026-05-25T13:37:55.763325Z"}}}